| time (UTC) | temp F | wind direction | speed MPH | gust MPH | rain 1hr in | rain 24hr in | rain mn in | humidity % | barometer mb |
| 20260831035613 | 62 | 196 | 5.0 | 10.0 | 0.00 | 1.06 | 0.00 | 89 | 1006.6 |
| 20260831035113 | 62 | 201 | 5.0 | 9.0 | 0.00 | 1.06 | 0.00 | 89 | 1006.7 |
| 20260831034636 | 62 | 218 | 4.0 | 8.0 | 0.00 | 1.06 | 0.00 | 89 | 1006.7 |
| 20260831034108 | 62 | 134 | 3.0 | 8.0 | 0.00 | 1.06 | 0.00 | 89 | 1006.7 |
| 20260831033617 | 62 | 192 | 2.0 | 9.0 | 0.00 | 1.06 | 0.00 | 89 | 1006.8 |
| 20260831033107 | 62 | 217 | 4.0 | 11.0 | 0.00 | 1.06 | 0.00 | 89 | 1006.8 |
| 20260831032643 | 62 | 218 | 5.0 | 11.0 | 0.00 | 1.06 | 0.00 | 89 | 1006.8 |
| 20260831032139 | 63 | 166 | 3.0 | 8.0 | 0.00 | 1.06 | 0.00 | 89 | 1006.8 |
| 20260831031616 | 63 | 183 | 4.0 | 10.0 | 0.00 | 1.06 | 0.00 | 89 | 1006.8 |
| 20260831031102 | 62 | 228 | 4.0 | 10.0 | 0.00 | 1.06 | 0.00 | 89 | 1007.0 |
| 20260831030621 | 62 | 216 | 5.0 | 10.0 | 0.00 | 1.06 | 0.00 | 89 | 1007.0 |
| 20260831030124 | 62 | 154 | 4.0 | 7.0 | 0.00 | 1.06 | 0.00 | 90 | 1007.1 |
| 20260831025620 | 62 | 210 | 3.0 | 8.0 | 0.00 | 1.06 | 0.00 | 90 | 1007.1 |
| 20260831025125 | 62 | 171 | 3.0 | 8.0 | 0.00 | 1.06 | 0.00 | 90 | 1007.3 |
| 20260831024625 | 62 | 215 | 4.0 | 7.0 | 0.00 | 1.06 | 0.00 | 90 | 1007.3 |
| 20260831024127 | 62 | 209 | 2.0 | 6.0 | 0.00 | 1.06 | 0.00 | 90 | 1007.3 |
| 20260831023626 | 62 | 226 | 2.0 | 6.0 | 0.00 | 1.06 | 0.00 | 90 | 1007.3 |
| 20260831023144 | 62 | 190 | 3.0 | 7.0 | 0.00 | 1.06 | 0.00 | 90 | 1007.3 |
| 20260831022612 | 62 | 206 | 2.0 | 6.0 | 0.00 | 1.06 | 0.00 | 90 | 1007.1 |
| 20260831022119 | 62 | 224 | 4.0 | 7.0 | 0.00 | 1.06 | 0.00 | 90 | 1007.2 |
| 20260831021610 | 62 | 215 | 4.0 | 7.0 | 0.00 | 1.06 | 0.00 | 90 | 1007.2 |
| 20260831021112 | 62 | 223 | 2.0 | 5.0 | 0.00 | 1.06 | 0.00 | 90 | 1007.2 |
| 20260831020624 | 62 | 214 | 2.0 | 4.0 | 0.00 | 1.06 | 0.00 | 90 | 1007.1 |
| 20260831020113 | 62 | 219 | 2.0 | 6.0 | 0.00 | 1.06 | 0.00 | 90 | 1007.1 |
| 20260831015641 | 62 | 217 | 3.0 | 6.0 | 0.00 | 1.06 | 0.00 | 90 | 1007.1 |
| 20260831015138 | 62 | 214 | 2.0 | 6.0 | 0.00 | 1.06 | 0.00 | 90 | 1007.1 |
| 20260831014638 | 62 | 218 | 3.0 | 7.0 | 0.00 | 1.06 | 0.00 | 90 | 1007.1 |
| 20260831014147 | 62 | 188 | 4.0 | 7.0 | 0.00 | 1.06 | 0.00 | 90 | 1007.1 |
| 20260831013617 | 62 | 205 | 3.0 | 9.0 | 0.00 | 1.06 | 0.00 | 90 | 1007.1 |
| 20260831013120 | 62 | 209 | 4.0 | 9.0 | 0.00 | 1.06 | 0.00 | 91 | 1007.2 |
| 20260831012617 | 61 | 202 | 4.0 | 6.0 | 0.00 | 1.06 | 0.00 | 91 | 1007.3 |
| 20260831012139 | 61 | 185 | 3.0 | 7.0 | 0.00 | 1.06 | 0.00 | 91 | 1007.4 |
| 20260831011619 | 61 | 201 | 3.0 | 7.0 | 0.00 | 1.06 | 0.00 | 91 | 1007.4 |
| 20260831011132 | 61 | 215 | 3.0 | 6.0 | 0.00 | 1.06 | 0.00 | 91 | 1007.4 |
| 20260831010616 | 61 | 211 | 2.0 | 5.0 | 0.00 | 1.06 | 0.00 | 91 | 1007.3 |
| 20260831010114 | 61 | 184 | 2.0 | 4.0 | 0.00 | 1.06 | 0.00 | 91 | 1007.3 |
| 20260831005613 | 61 | 216 | 2.0 | 6.0 | 0.00 | 1.06 | 0.00 | 91 | 1007.4 |
| 20260831005107 | 61 | 204 | 3.0 | 6.0 | 0.00 | 1.06 | 0.00 | 90 | 1007.5 |
| 20260831004646 | 62 | 184 | 2.0 | 4.0 | 0.00 | 1.06 | 0.00 | 90 | 1007.4 |
| 20260831004134 | 62 | 146 | 2.0 | 4.0 | 0.00 | 1.06 | 0.00 | 89 | 1007.5 |
| 20260831003622 | 62 | 182 | 2.0 | 5.0 | 0.00 | 1.06 | 0.00 | 89 | 1007.5 |
| 20260831003111 | 62 | 172 | 3.0 | 5.0 | 0.00 | 1.06 | 0.00 | 89 | 1007.5 |
| 20260831002628 | 62 | 100 | 2.0 | 5.0 | 0.00 | 1.06 | 0.00 | 89 | 1007.5 |
| 20260831002117 | 62 | 215 | 2.0 | 5.0 | 0.00 | 1.06 | 0.00 | 89 | 1007.5 |
| 20260831001631 | 62 | 169 | 3.0 | 5.0 | 0.00 | 1.06 | 0.00 | 88 | 1007.6 |
| 20260831001109 | 62 | 213 | 2.0 | 5.0 | 0.00 | 1.06 | 0.00 | 88 | 1007.7 |
| 20260831000610 | 63 | 206 | 2.0 | 5.0 | 0.00 | 1.06 | 0.00 | 88 | 1007.7 |
| 20260831000147 | 63 | 184 | 2.0 | 7.0 | 0.00 | 1.06 | 0.00 | 88 | 1007.7 |
| 20260830235610 | 63 | 223 | 3.0 | 7.0 | 0.00 | 1.10 | 0.00 | 88 | 1007.8 |
| 20260830235125 | 63 | 200 | 3.0 | 8.0 | 0.00 | 1.10 | 0.00 | 87 | 1007.9 |
| 20260830234630 | 63 | 140 | 2.0 | 8.0 | 0.00 | 1.10 | 0.00 | 87 | 1007.9 |
| 20260830234108 | 63 | 209 | 3.0 | 10.0 | 0.00 | 1.10 | 0.00 | 87 | 1008.1 |
| 20260830233624 | 63 | 221 | 5.0 | 10.0 | 0.00 | 1.10 | 0.00 | 88 | 1008.1 |
| 20260830233135 | 63 | 191 | 3.0 | 9.0 | 0.00 | 1.10 | 0.00 | 89 | 1008.1 |
| 20260830232638 | 64 | 175 | 4.0 | 7.0 | 0.00 | 1.10 | 0.00 | 90 | 1008.2 |
| 20260830232112 | 63 | 219 | 3.0 | 7.0 | 0.00 | 1.10 | 0.00 | 90 | 1008.2 |
| 20260830231609 | 63 | 219 | 4.0 | 7.0 | 0.00 | 1.10 | 0.00 | 92 | 1008.1 |
| 20260830231149 | 63 | 182 | 4.0 | 7.0 | 0.00 | 1.10 | 0.00 | 92 | 1008.1 |
| 20260830230621 | 63 | 140 | 3.0 | 7.0 | 0.00 | 1.10 | 0.00 | 93 | 1008.1 |
| 20260830230105 | 63 | 219 | 3.0 | 7.0 | 0.00 | 1.10 | 0.00 | 93 | 1008.1 |
| 20260830225625 | 62 | 217 | 3.0 | 7.0 | 0.00 | 1.14 | 0.00 | 94 | 1008.1 |
| 20260830225108 | 62 | 148 | 2.0 | 4.0 | 0.00 | 1.14 | 0.00 | 94 | 1008.1 |
| 20260830224621 | 62 | 212 | 1.0 | 3.0 | 0.00 | 1.14 | 0.00 | 94 | 1008.1 |
| 20260830224118 | 62 | 208 | 1.0 | 2.0 | 0.00 | 1.14 | 0.00 | 94 | 1008.2 |
| 20260830223605 | 61 | 208 | 0.0 | 1.0 | 0.00 | 1.14 | 0.00 | 94 | 1008.1 |
| 20260830223114 | 61 | 208 | 0.0 | 1.0 | 0.00 | 1.14 | 0.00 | 94 | 1008.0 |
| 20260830222635 | 62 | 208 | 0.0 | 0.0 | 0.00 | 1.14 | 0.00 | 94 | 1008.1 |
| 20260830222132 | 61 | 208 | 0.0 | 0.0 | 0.00 | 1.14 | 0.00 | 94 | 1008.3 |
| 20260830221636 | 61 | 208 | 0.0 | 0.0 | 0.00 | 1.14 | 0.00 | 94 | 1008.4 |
| 20260830221109 | 61 | 208 | 0.0 | 0.0 | 0.00 | 1.14 | 0.00 | 93 | 1008.4 |
| 20260830220617 | 61 | 208 | 0.0 | 0.0 | 0.00 | 1.14 | 0.00 | 93 | 1008.5 |
| 20260830220106 | 61 | 208 | 0.0 | 0.0 | 0.00 | 1.14 | 0.00 | 93 | 1008.5 |
| 20260830215617 | 61 | 208 | 0.0 | 0.0 | 0.00 | 1.14 | 0.23 | 92 | 1008.4 |
| 20260830215107 | 62 | 208 | 0.0 | 0.0 | 0.00 | 1.14 | 0.23 | 91 | 1008.4 |
| 20260830214603 | 62 | 208 | 0.0 | 1.0 | 0.00 | 1.14 | 0.23 | 91 | 1008.5 |
| 20260830214110 | 63 | 208 | 0.0 | 1.0 | 0.00 | 1.14 | 0.23 | 91 | 1008.6 |
| 20260830213623 | 63 | 208 | 0.0 | 2.0 | 0.00 | 1.14 | 0.23 | 90 | 1008.7 |
| 20260830213106 | 63 | 208 | 0.0 | 3.0 | 0.00 | 1.14 | 0.23 | 90 | 1008.7 |
| 20260830212615 | 63 | 208 | 1.0 | 5.0 | 0.00 | 1.14 | 0.23 | 90 | 1008.8 |
| 20260830212109 | 64 | 312 | 0.0 | 5.0 | 0.00 | 1.14 | 0.23 | 90 | 1008.9 |
| 20260830211615 | 64 | 243 | 1.0 | 2.0 | 0.00 | 1.14 | 0.23 | 89 | 1008.9 |
| 20260830211121 | 64 | 313 | 0.0 | 4.0 | 0.00 | 1.14 | 0.23 | 89 | 1008.9 |
| 20260830210617 | 64 | 281 | 2.0 | 4.0 | 0.00 | 1.14 | 0.23 | 89 | 1008.9 |
| 20260830210120 | 64 | 311 | 1.0 | 4.0 | 0.00 | 1.14 | 0.23 | 89 | 1009.0 |
| 20260830205614 | 65 | 258 | 1.0 | 4.0 | 0.00 | 1.14 | 0.23 | 89 | 1009.0 |
| 20260830205114 | 65 | 300 | 1.0 | 6.0 | 0.00 | 1.14 | 0.23 | 89 | 1009.0 |
| 20260830204624 | 65 | 228 | 3.0 | 6.0 | 0.00 | 1.14 | 0.23 | 88 | 1009.0 |
| 20260830204145 | 65 | 215 | 2.0 | 4.0 | 0.00 | 1.14 | 0.23 | 89 | 1008.8 |
| 20260830203618 | 65 | 172 | 2.0 | 6.0 | 0.00 | 1.14 | 0.23 | 89 | 1008.8 |
| 20260830203124 | 64 | 175 | 2.0 | 6.0 | 0.00 | 1.14 | 0.23 | 90 | 1008.8 |
| 20260830202640 | 65 | 191 | 1.0 | 3.0 | 0.00 | 1.14 | 0.23 | 90 | 1008.8 |
| 20260830202115 | 64 | 162 | 1.0 | 3.0 | 0.00 | 1.14 | 0.23 | 91 | 1008.8 |
| 20260830201622 | 64 | 176 | 1.0 | 2.0 | 0.00 | 1.14 | 0.23 | 91 | 1008.9 |
| 20260830201128 | 64 | 176 | 0.0 | 1.0 | 0.00 | 1.14 | 0.23 | 91 | 1008.9 |
| 20260830200623 | 64 | 176 | 0.0 | 1.0 | 0.00 | 1.14 | 0.23 | 91 | 1008.9 |
| 20260830200113 | 64 | 176 | 0.0 | 1.0 | 0.00 | 1.14 | 0.23 | 91 | 1009.0 |
| 20260830195638 | 64 | 176 | 0.0 | 0.0 | 0.00 | 3.62 | 0.23 | 91 | 1009.1 |
| 20260830195121 | 64 | 176 | 0.0 | 1.0 | 0.00 | 3.62 | 0.23 | 91 | 1009.0 |
| 20260830194632 | 64 | 176 | 0.0 | 1.0 | 0.00 | 3.62 | 0.23 | 91 | 1009.1 |
| 20260830194134 | 64 | 176 | 0.0 | 0.0 | 0.00 | 3.62 | 0.23 | 91 | 1009.2 |
| 20260830193626 | 64 | 176 | 0.0 | 1.0 | 0.00 | 3.62 | 0.23 | 91 | 1009.1 |
| 20260830193129 | 64 | 176 | 0.0 | 1.0 | 0.00 | 3.62 | 0.23 | 92 | 1009.2 |
| 20260830192620 | 64 | 176 | 0.0 | 2.0 | 0.00 | 3.62 | 0.23 | 92 | 1009.2 |
| 20260830192123 | 63 | 176 | 0.0 | 2.0 | 0.00 | 3.62 | 0.23 | 92 | 1009.3 |
| 20260830191609 | 64 | 176 | 0.0 | 1.0 | 0.00 | 3.62 | 0.23 | 91 | 1009.2 |
| 20260830191133 | 64 | 176 | 0.0 | 1.0 | 0.00 | 3.62 | 0.23 | 91 | 1009.2 |
| 20260830190608 | 64 | 176 | 0.0 | 1.0 | 0.00 | 3.62 | 0.23 | 91 | 1009.2 |
| 20260830190129 | 64 | 176 | 1.0 | 1.0 | 0.00 | 3.62 | 0.23 | 91 | 1009.3 |
| 20260830185623 | 64 | 176 | 0.0 | 0.0 | 0.00 | 3.70 | 0.23 | 91 | 1009.2 |
| 20260830185124 | 64 | 176 | 0.0 | 1.0 | 0.00 | 3.70 | 0.23 | 90 | 1009.3 |
| 20260830184637 | 64 | 176 | 0.0 | 2.0 | 0.00 | 3.70 | 0.23 | 90 | 1009.4 |
| 20260830184122 | 64 | 176 | 1.0 | 2.0 | 0.00 | 3.70 | 0.23 | 90 | 1009.4 |
| 20260830183625 | 65 | 176 | 0.0 | 2.0 | 0.00 | 3.70 | 0.23 | 90 | 1009.3 |
| 20260830183123 | 65 | 176 | 0.0 | 3.0 | 0.00 | 3.70 | 0.23 | 90 | 1009.3 |
| 20260830182631 | 65 | 176 | 1.0 | 3.0 | 0.00 | 3.70 | 0.23 | 91 | 1009.3 |
| 20260830182119 | 65 | 176 | 1.0 | 2.0 | 0.00 | 3.70 | 0.23 | 91 | 1009.5 |
| 20260830181606 | 65 | 176 | 1.0 | 2.0 | 0.00 | 3.70 | 0.23 | 90 | 1009.5 |
| 20260830181121 | 65 | 176 | 0.0 | 1.0 | 0.00 | 3.70 | 0.23 | 90 | 1009.4 |
| 20260830180617 | 65 | 176 | 0.0 | 2.0 | 0.00 | 3.70 | 0.23 | 89 | 1009.4 |
| 20260830180113 | 65 | 176 | 1.0 | 2.0 | 0.00 | 3.70 | 0.23 | 89 | 1009.4 |
| 20260830175609 | 66 | 176 | 0.0 | 2.0 | 0.00 | 3.78 | 0.23 | 88 | 1009.4 |
| 20260830175118 | 66 | 176 | 0.0 | 2.0 | 0.00 | 3.78 | 0.23 | 88 | 1009.5 |
| 20260830174611 | 66 | 176 | 0.0 | 1.0 | 0.00 | 3.78 | 0.23 | 88 | 1009.6 |
| 20260830174121 | 66 | 176 | 0.0 | 2.0 | 0.00 | 3.78 | 0.23 | 87 | 1009.6 |
| 20260830173608 | 67 | 176 | 0.0 | 3.0 | 0.00 | 3.78 | 0.23 | 85 | 1009.7 |
| 20260830173125 | 67 | 176 | 1.0 | 3.0 | 0.00 | 3.78 | 0.23 | 84 | 1009.7 |
| 20260830172623 | 68 | 176 | 0.0 | 4.0 | 0.00 | 3.78 | 0.23 | 84 | 1009.7 |
| 20260830172129 | 68 | 188 | 1.0 | 4.0 | 0.00 | 3.78 | 0.23 | 84 | 1009.7 |
| 20260830171622 | 68 | 198 | 0.0 | 4.0 | 0.00 | 3.78 | 0.23 | 83 | 1009.8 |
| 20260830171135 | 68 | 198 | 2.0 | 4.0 | 0.00 | 3.78 | 0.23 | 82 | 1009.8 |
| 20260830170635 | 68 | 227 | 2.0 | 3.0 | 0.00 | 3.78 | 0.23 | 85 | 1009.9 |
| 20260830170134 | 67 | 142 | 2.0 | 3.0 | 0.00 | 3.78 | 0.23 | 84 | 1009.8 |
| 20260830165629 | 67 | 145 | 0.0 | 2.0 | 0.00 | 3.82 | 0.23 | 86 | 1009.9 |
| 20260830165133 | 67 | 194 | 0.0 | 1.0 | 0.00 | 3.82 | 0.23 | 86 | 1010.0 |
| 20260830164619 | 67 | 194 | 0.0 | 2.0 | 0.00 | 3.82 | 0.23 | 85 | 1010.0 |
| 20260830164126 | 68 | 194 | 1.0 | 3.0 | 0.00 | 3.82 | 0.23 | 83 | 1010.0 |
| 20260830163647 | 68 | 194 | 1.0 | 3.0 | 0.00 | 3.82 | 0.23 | 82 | 1010.0 |
| 20260830163112 | 68 | 182 | 1.0 | 4.0 | 0.00 | 3.82 | 0.23 | 83 | 1010.0 |
| 20260830162630 | 68 | 213 | 2.0 | 4.0 | 0.00 | 3.82 | 0.23 | 81 | 1010.0 |
| 20260830162108 | 68 | 200 | 1.0 | 6.0 | 0.00 | 3.82 | 0.23 | 80 | 1010.0 |
| 20260830161614 | 67 | 189 | 3.0 | 6.0 | 0.00 | 3.82 | 0.23 | 82 | 1010.2 |
| 20260830161124 | 68 | 230 | 0.0 | 5.0 | 0.00 | 3.82 | 0.23 | 81 | 1010.1 |
| 20260830160636 | 68 | 230 | 3.0 | 5.0 | 0.00 | 3.82 | 0.23 | 79 | 1010.1 |
| 20260830160115 | 68 | 275 | 1.0 | 7.0 | 0.00 | 3.82 | 0.23 | 80 | 1010.1 |
| 20260830155621 | 68 | 233 | 3.0 | 7.0 | 0.00 | 3.82 | 0.23 | 79 | 1010.2 |
| 20260830155107 | 68 | 203 | 2.0 | 5.0 | 0.00 | 3.82 | 0.23 | 78 | 1010.2 |
| 20260830154619 | 69 | 217 | 1.0 | 9.0 | 0.00 | 3.82 | 0.23 | 79 | 1010.1 |
| 20260830154118 | 69 | 203 | 2.0 | 9.0 | 0.00 | 3.82 | 0.23 | 76 | 1010.2 |
| 20260830153609 | 69 | 309 | 2.0 | 8.0 | 0.00 | 3.82 | 0.23 | 78 | 1010.3 |
| 20260830153131 | 69 | 230 | 2.0 | 8.0 | 0.00 | 3.82 | 0.23 | 79 | 1010.3 |
| 20260830152617 | 69 | 236 | 4.0 | 9.0 | 0.00 | 3.82 | 0.23 | 77 | 1010.4 |
| 20260830152108 | 69 | 223 | 5.0 | 12.0 | 0.00 | 3.82 | 0.23 | 76 | 1010.4 |
| 20260830151625 | 69 | 232 | 3.0 | 9.0 | 0.00 | 3.82 | 0.23 | 78 | 1010.4 |
| 20260830151110 | 69 | 286 | 3.0 | 10.0 | 0.00 | 3.82 | 0.23 | 78 | 1010.5 |
| 20260830150612 | 69 | 290 | 2.0 | 10.0 | 0.00 | 3.82 | 0.23 | 79 | 1010.5 |
| 20260830150114 | 69 | 227 | 3.0 | 8.0 | 0.00 | 3.82 | 0.23 | 79 | 1010.5 |
| 20260830145648 | 69 | 221 | 3.0 | 10.0 | 0.00 | 3.82 | 0.23 | 80 | 1010.5 |
| 20260830145134 | 69 | 225 | 2.0 | 15.0 | 0.00 | 3.82 | 0.23 | 81 | 1010.5 |
| 20260830144628 | 69 | 256 | 4.0 | 15.0 | 0.00 | 3.82 | 0.23 | 77 | 1010.5 |
| 20260830144121 | 69 | 223 | 4.0 | 9.0 | 0.00 | 3.82 | 0.23 | 83 | 1010.6 |
| 20260830143649 | 69 | 233 | 2.0 | 7.0 | 0.00 | 3.82 | 0.23 | 84 | 1010.5 |
| 20260830143111 | 69 | 201 | 4.0 | 9.0 | 0.00 | 3.82 | 0.23 | 83 | 1010.6 |
| 20260830142638 | 69 | 192 | 3.0 | 9.0 | 0.00 | 3.82 | 0.23 | 83 | 1010.5 |
| 20260830142123 | 69 | 261 | 3.0 | 8.0 | 0.00 | 3.82 | 0.23 | 85 | 1010.5 |
| 20260830141655 | 69 | 213 | 4.0 | 7.0 | 0.00 | 3.82 | 0.23 | 86 | 1010.5 |
| 20260830141110 | 68 | 229 | 2.0 | 7.0 | 0.00 | 3.82 | 0.23 | 85 | 1010.5 |
| 20260830140619 | 68 | 194 | 4.0 | 7.0 | 0.00 | 3.82 | 0.23 | 86 | 1010.5 |
| 20260830140121 | 69 | 239 | 3.0 | 7.0 | 0.00 | 3.82 | 0.23 | 86 | 1010.5 |
| 20260830135639 | 69 | 266 | 3.0 | 8.0 | 0.00 | 3.82 | 0.23 | 85 | 1010.5 |
| 20260830135125 | 68 | 238 | 4.0 | 10.0 | 0.00 | 3.82 | 0.23 | 86 | 1010.5 |
| 20260830134635 | 68 | 236 | 3.0 | 10.0 | 0.00 | 3.82 | 0.23 | 87 | 1010.5 |
| 20260830134116 | 68 | 215 | 3.0 | 9.0 | 0.00 | 3.82 | 0.23 | 89 | 1010.5 |
| 20260830133607 | 67 | 219 | 4.0 | 9.0 | 0.00 | 3.82 | 0.23 | 89 | 1010.6 |
| 20260830133105 | 67 | 284 | 3.0 | 8.0 | 0.00 | 3.82 | 0.23 | 90 | 1010.6 |
| 20260830132627 | 67 | 236 | 3.0 | 8.0 | 0.04 | 3.82 | 0.23 | 90 | 1010.6 |
| 20260830132108 | 67 | 259 | 3.0 | 10.0 | 0.04 | 3.82 | 0.23 | 90 | 1010.6 |
| 20260830131624 | 67 | 192 | 4.0 | 10.0 | 0.04 | 3.82 | 0.23 | 91 | 1010.5 |
| 20260830131131 | 67 | 246 | 2.0 | 9.0 | 0.04 | 3.82 | 0.23 | 93 | 1010.5 |
| 20260830130613 | 66 | 205 | 4.0 | 9.0 | 0.04 | 3.82 | 0.23 | 92 | 1010.5 |
| 20260830130126 | 66 | 221 | 2.0 | 7.0 | 0.08 | 3.82 | 0.23 | 93 | 1010.5 |
| 20260830125634 | 66 | 222 | 2.0 | 7.0 | 0.08 | 3.82 | 0.23 | 93 | 1010.5 |
| 20260830125143 | 66 | 186 | 3.0 | 5.0 | 0.08 | 3.82 | 0.23 | 93 | 1010.4 |
| 20260830124618 | 66 | 236 | 2.0 | 8.0 | 0.08 | 3.82 | 0.23 | 94 | 1010.4 |
| 20260830124122 | 66 | 204 | 3.0 | 8.0 | 0.12 | 3.82 | 0.23 | 94 | 1010.4 |
| 20260830123610 | 66 | 207 | 0.0 | 4.0 | 0.12 | 3.82 | 0.23 | 95 | 1010.4 |
| 20260830123111 | 65 | 184 | 1.0 | 4.0 | 0.12 | 3.82 | 0.23 | 94 | 1010.4 |
| 20260830122612 | 66 | 237 | 1.0 | 3.0 | 0.12 | 3.78 | 0.22 | 95 | 1010.4 |
| 20260830122118 | 66 | 249 | 1.0 | 3.0 | 0.16 | 3.78 | 0.22 | 95 | 1010.4 |
| 20260830121612 | 65 | 257 | 1.0 | 6.0 | 0.28 | 3.78 | 0.22 | 94 | 1010.3 |
| 20260830121137 | 65 | 211 | 2.0 | 6.0 | 0.31 | 3.78 | 0.22 | 95 | 1010.3 |
| 20260830120623 | 65 | 213 | 1.0 | 3.0 | 0.31 | 3.78 | 0.22 | 95 | 1010.2 |
| 20260830120112 | 65 | 245 | 1.0 | 5.0 | 0.28 | 3.74 | 0.21 | 95 | 1010.2 |
| 20260830115616 | 65 | 192 | 2.0 | 8.0 | 0.28 | 3.74 | 0.21 | 94 | 1010.1 |
| 20260830115122 | 64 | 215 | 3.0 | 7.0 | 0.28 | 3.74 | 0.21 | 94 | 1010.1 |
| 20260830114621 | 64 | 161 | 2.0 | 6.0 | 0.28 | 3.74 | 0.21 | 94 | 1010.1 |
| 20260830114114 | 64 | 288 | 2.0 | 7.0 | 0.24 | 3.70 | 0.20 | 94 | 1010.0 |
| 20260830113644 | 64 | 190 | 3.0 | 10.0 | 0.24 | 3.70 | 0.20 | 94 | 1010.1 |
| 20260830113128 | 64 | 250 | 3.0 | 9.0 | 0.24 | 3.70 | 0.20 | 94 | 1010.0 |
| 20260830112610 | 65 | 234 | 2.0 | 7.0 | 0.20 | 3.66 | 0.20 | 94 | 1010.0 |
| 20260830112116 | 65 | 196 | 4.0 | 7.0 | 0.12 | 3.58 | 0.18 | 94 | 1009.9 |
| 20260830111642 | 65 | 195 | 3.0 | 10.0 | 0.04 | 3.50 | 0.17 | 94 | 1009.8 |
| 20260830111124 | 65 | 249 | 4.0 | 10.0 | 0.04 | 3.46 | 0.16 | 94 | 1009.7 |
| 20260830110616 | 66 | 242 | 2.0 | 7.0 | 0.04 | 3.46 | 0.16 | 94 | 1009.6 |
| 20260830110110 | 65 | 279 | 3.0 | 11.0 | 0.12 | 3.46 | 0.16 | 94 | 1009.5 |
| 20260830105639 | 66 | 299 | 4.0 | 11.0 | 0.16 | 3.46 | 0.16 | 94 | 1009.5 |
| 20260830105109 | 66 | 235 | 4.0 | 9.0 | 0.24 | 3.46 | 0.16 | 94 | 1009.5 |
| 20260830104619 | 66 | 254 | 4.0 | 8.0 | 0.24 | 3.46 | 0.16 | 94 | 1009.4 |
| 20260830104117 | 67 | 242 | 3.0 | 9.0 | 0.24 | 3.46 | 0.16 | 95 | 1009.4 |
| 20260830103636 | 67 | 299 | 1.0 | 8.0 | 0.28 | 3.46 | 0.16 | 97 | 1009.4 |
| 20260830103117 | 65 | 309 | 3.0 | 12.0 | 0.31 | 3.46 | 0.16 | 95 | 1009.5 |
| 20260830102611 | 65 | 287 | 2.0 | 12.0 | 0.35 | 3.46 | 0.16 | 95 | 1009.4 |
| 20260830102107 | 64 | 200 | 4.0 | 9.0 | 0.35 | 3.46 | 0.16 | 95 | 1009.4 |
| 20260830101613 | 64 | 267 | 4.0 | 10.0 | 0.35 | 3.46 | 0.16 | 95 | 1009.4 |
| 20260830101120 | 64 | 202 | 3.0 | 10.0 | 0.31 | 3.43 | 0.15 | 95 | 1009.3 |
| 20260830100640 | 64 | 116 | 3.0 | 10.0 | 0.31 | 3.43 | 0.15 | 95 | 1009.3 |
| 20260830100104 | 64 | 125 | 3.0 | 16.0 | 0.28 | 3.35 | 0.13 | 94 | 1009.2 |
| 20260830095612 | 64 | 270 | 4.0 | 16.0 | 0.24 | 3.31 | 0.13 | 95 | 1009.1 |
| 20260830095108 | 64 | 209 | 5.0 | 21.0 | 0.16 | 3.23 | 0.11 | 94 | 1009.1 |
| 20260830094607 | 64 | 184 | 9.0 | 21.0 | 0.16 | 3.23 | 0.11 | 94 | 1009.0 |
| 20260830094110 | 64 | 213 | 6.0 | 15.0 | 0.16 | 3.23 | 0.11 | 94 | 1008.8 |
| 20260830093619 | 64 | 179 | 7.0 | 14.0 | 0.12 | 3.19 | 0.10 | 94 | 1008.9 |
| 20260830093111 | 64 | 221 | 4.0 | 17.0 | 0.08 | 3.15 | 0.09 | 94 | 1008.9 |
| 20260830092626 | 65 | 277 | 5.0 | 20.0 | 0.04 | 3.11 | 0.09 | 94 | 1008.7 |
| 20260830092109 | 65 | 223 | 5.0 | 20.0 | 0.04 | 3.11 | 0.09 | 94 | 1008.7 |
| 20260830091628 | 64 | 244 | 9.0 | 15.0 | 0.04 | 3.11 | 0.09 | 94 | 1008.7 |
| 20260830091114 | 65 | 184 | 4.0 | 14.0 | 0.04 | 3.11 | 0.09 | 94 | 1008.6 |
| 20260830090614 | 64 | 281 | 7.0 | 14.0 | 0.04 | 3.11 | 0.09 | 94 | 1008.5 |
| 20260830090106 | 65 | 240 | 6.0 | 11.0 | 0.00 | 3.07 | 0.08 | 94 | 1008.5 |
| 20260830085620 | 65 | 234 | 6.0 | 12.0 | 0.00 | 3.07 | 0.08 | 94 | 1008.5 |
| 20260830085116 | 65 | 272 | 4.0 | 13.0 | 0.00 | 3.07 | 0.08 | 94 | 1008.3 |
| 20260830084638 | 65 | 209 | 7.0 | 13.0 | 0.00 | 3.07 | 0.08 | 93 | 1008.3 |
| 20260830084111 | 65 | 207 | 4.0 | 12.0 | 0.00 | 3.07 | 0.08 | 93 | 1008.2 |
| 20260830083613 | 65 | 180 | 6.0 | 12.0 | 0.00 | 3.07 | 0.08 | 94 | 1008.2 |
| 20260830083114 | 65 | 130 | 6.0 | 13.0 | 0.00 | 3.07 | 0.08 | 94 | 1008.1 |
| 20260830082616 | 65 | 261 | 6.0 | 12.0 | 0.00 | 3.07 | 0.08 | 94 | 1008.1 |
| 20260830082148 | 65 | 217 | 7.0 | 11.0 | 0.00 | 3.07 | 0.08 | 94 | 1008.0 |
| 20260830081621 | 65 | 192 | 6.0 | 16.0 | 0.04 | 3.07 | 0.08 | 94 | 1008.0 |
| 20260830081116 | 65 | 224 | 6.0 | 16.0 | 0.04 | 3.07 | 0.08 | 95 | 1007.9 |
| 20260830080635 | 65 | 223 | 4.0 | 13.0 | 0.04 | 3.07 | 0.08 | 94 | 1007.9 |
| 20260830080111 | 64 | 252 | 5.0 | 12.0 | 0.04 | 3.07 | 0.08 | 95 | 1007.9 |
| 20260830075612 | 64 | 235 | 3.0 | 10.0 | 0.04 | 3.07 | 0.08 | 95 | 1007.8 |
| 20260830075105 | 64 | 156 | 4.0 | 10.0 | 0.04 | 3.07 | 0.08 | 95 | 1007.7 |
| 20260830074613 | 64 | 194 | 6.0 | 11.0 | 0.04 | 3.07 | 0.08 | 95 | 1007.7 |
| 20260830074122 | 64 | 233 | 6.0 | 11.0 | 0.04 | 3.07 | 0.08 | 95 | 1007.6 |
| 20260830073606 | 64 | 221 | 3.0 | 10.0 | 0.04 | 3.07 | 0.08 | 95 | 1007.5 |
| 20260830073101 | 64 | 210 | 4.0 | 10.0 | 0.08 | 3.07 | 0.08 | 95 | 1007.5 |
| 20260830072640 | 64 | 230 | 4.0 | 10.0 | 0.08 | 3.07 | 0.08 | 95 | 1007.3 |
| 20260830072146 | 64 | 223 | 5.0 | 13.0 | 0.12 | 3.07 | 0.08 | 95 | 1007.3 |
| 20260830071614 | 64 | 309 | 3.0 | 9.0 | 0.12 | 3.03 | 0.07 | 95 | 1007.3 |
| 20260830071130 | 64 | 189 | 4.0 | 12.0 | 0.12 | 3.03 | 0.07 | 95 | 1007.2 |
| 20260830070632 | 64 | 188 | 7.0 | 12.0 | 0.12 | 3.03 | 0.07 | 95 | 1007.2 |
| 20260830070119 | 64 | 209 | 4.0 | 11.0 | 0.16 | 3.03 | 0.07 | 95 | 1007.0 |
| 20260830065618 | 64 | 219 | 4.0 | 8.0 | 0.16 | 3.03 | 0.07 | 95 | 1006.9 |
| 20260830065155 | 64 | 235 | 4.0 | 11.0 | 0.16 | 3.03 | 0.07 | 95 | 1006.9 |
| 20260830064618 | 63 | 199 | 3.0 | 11.0 | 0.16 | 3.03 | 0.07 | 95 | 1006.8 |
| 20260830064119 | 63 | 211 | 5.0 | 7.0 | 0.16 | 3.03 | 0.07 | 95 | 1006.8 |
| 20260830063635 | 63 | 209 | 4.0 | 7.0 | 0.16 | 3.03 | 0.07 | 94 | 1006.8 |
| 20260830063110 | 63 | 233 | 4.0 | 13.0 | 0.12 | 2.99 | 0.06 | 94 | 1006.8 |
| 20260830062620 | 63 | 220 | 5.0 | 13.0 | 0.12 | 2.99 | 0.06 | 94 | 1006.7 |
| 20260830062117 | 63 | 222 | 6.0 | 12.0 | 0.08 | 2.95 | 0.06 | 94 | 1006.6 |
| 20260830061622 | 63 | 135 | 5.0 | 12.0 | 0.04 | 2.91 | 0.05 | 94 | 1006.6 |
| 20260830061106 | 63 | 252 | 5.0 | 12.0 | 0.04 | 2.91 | 0.05 | 94 | 1006.5 |
| 20260830060619 | 64 | 219 | 3.0 | 11.0 | 0.04 | 2.91 | 0.05 | 94 | 1006.5 |
| 20260830060119 | 64 | 202 | 4.0 | 11.0 | 0.00 | 2.87 | 0.04 | 94 | 1006.5 |
| 20260830055652 | 64 | 242 | 4.0 | 11.0 | 0.00 | 2.87 | 0.04 | 94 | 1006.4 |
| 20260830055113 | 64 | 217 | 5.0 | 12.0 | 0.00 | 2.87 | 0.04 | 94 | 1006.3 |
| 20260830054619 | 64 | 213 | 6.0 | 12.0 | 0.00 | 2.87 | 0.04 | 94 | 1006.2 |
| 20260830054126 | 64 | 200 | 6.0 | 10.0 | 0.08 | 2.87 | 0.04 | 94 | 1006.2 |
| 20260830053613 | 64 | 183 | 4.0 | 7.0 | 0.12 | 2.87 | 0.04 | 94 | 1006.2 |
| 20260830053112 | 64 | 211 | 4.0 | 10.0 | 0.12 | 2.87 | 0.04 | 94 | 1006.1 |
| 20260830052628 | 64 | 233 | 4.0 | 11.0 | 0.12 | 2.87 | 0.04 | 94 | 1006.1 |
| 20260830052107 | 64 | 219 | 6.0 | 12.0 | 0.12 | 2.87 | 0.04 | 94 | 1006.0 |
| 20260830051612 | 64 | 196 | 4.0 | 12.0 | 0.12 | 2.87 | 0.04 | 94 | 1005.9 |
| 20260830051109 | 64 | 186 | 6.0 | 12.0 | 0.12 | 2.87 | 0.04 | 94 | 1005.8 |
| 20260830050618 | 64 | 206 | 5.0 | 10.0 | 0.12 | 2.87 | 0.04 | 93 | 1005.8 |
| 20260830050109 | 64 | 198 | 5.0 | 8.0 | 0.12 | 2.87 | 0.04 | 93 | 1005.8 |
| 20260830045622 | 64 | 219 | 4.0 | 7.0 | 0.12 | 2.91 | 0.04 | 93 | 1005.8 |
| 20260830045124 | 64 | 234 | 3.0 | 11.0 | 0.12 | 2.91 | 0.04 | 93 | 1005.7 |
| 20260830044603 | 64 | 205 | 5.0 | 11.0 | 0.12 | 2.91 | 0.04 | 93 | 1005.7 |
| 20260830044116 | 64 | 173 | 4.0 | 9.0 | 0.00 | 2.80 | 0.02 | 93 | 1005.7 |
| 20260830043646 | 64 | 247 | 3.0 | 13.0 | 0.00 | 2.80 | 0.02 | 93 | 1005.6 |
| 20260830043132 | 64 | 151 | 7.0 | 13.0 | 0.00 | 2.80 | 0.02 | 93 | 1005.5 |
| 20260830042639 | 64 | 157 | 5.0 | 12.0 | 0.00 | 2.80 | 0.02 | 92 | 1005.6 |
| 20260830042108 | 64 | 229 | 4.0 | 12.0 | 0.00 | 2.80 | 0.02 | 92 | 1005.4 |
| 20260830041624 | 64 | 167 | 6.0 | 13.0 | 0.00 | 2.80 | 0.02 | 92 | 1005.4 |
| 20260830041106 | 64 | 184 | 6.0 | 13.0 | 0.00 | 2.80 | 0.02 | 92 | 1005.5 |
| 20260830040621 | 64 | 218 | 4.0 | 12.0 | 0.00 | 2.80 | 0.02 | 92 | 1005.4 |
| 20260830040133 | 64 | 232 | 6.0 | 13.0 | 0.00 | 2.80 | 0.02 | 92 | 1005.5 |